McCall, ID

8:33 PM MST on February 08, 2016 (GMT -0700)
MesoWest | | Change Station
CLOSE
Current Station
Personal Weather Station
Location: McCall, ID
Elevation: 5350 ft
Nearby Weather Stations

Elev 5350 ft 44.95 °N, 116.14 °W | Updated 1 hour ago

Clear
Clear
30.0 °F
Feels Like 30.0 °F
N
0.0
Wind Variable Wind from North
Gusts 0.0 mph

Today
High -- | Low -- °F
--% Chance of Precip.
Yesterday
High -- | Low -- °F
Precip. -- in
Pressure 30.56 in
Visibility 0.8 miles
Clouds Clear
Dew Point Not available.
Humidity Not available.
Rainfall in
Snow Depth Not available.
7:55 AM 6:02 PM
New Moon, 0% visible
SPECI KMYL 090314Z AUTO 00000KT 3/4SM BR CLR M04/M04 A3056 RMK AO2 T10391044
Pressure 30.56 in
Visibility 0.8 miles
Clouds Clear
Dew Point Not available.
Humidity Not available.
Rainfall in
Snow Depth Not available.
7:55 AM 6:02 PM
New Moon, 0% visible
SPECI KMYL 090314Z AUTO 00000KT 3/4SM BR CLR M04/M04 A3056 RMK AO2 T10391044

10-Day Weather Forecast

Almanac

Astronomy

Feb. 08, 2016 Rise Set
Actual Time
Civil Twilight
Nautical Twilight
Astronomical Twilight
Moon
Length of Visible Light
Length of Day
Tomorrow will be .
, % of the Moon is Illuminated

Today's Extremes

State Highs State Lows

Community

WunderPhotos

Upload Photos

1,891,527 photos uploaded!

WunderBlog® & News

Nearby

Air Quality

  Air Quality AQ Index Pollutant
Not available.

Snow Depth

Station Depth Elevation

Earthquake Activity

City Distance Mag. Time & Date
Minimum magnitude displayed is 2.5.

Coastal Water Temperatures

Place Temperature

Stations

Nearby Weather Stations

Station Location Temp. Windchill Dew Point Humidity Wind Precip. Elev Updated Type
                   

Watches & Warnings

There are currently no watches in effect.